Orbital Elements at Epoch 2459000.5 (2020-May-31.0) TDB
Reference: JPL 21 (heliocentric ecliptic J2000)
Element | Value | Uncertainty (1-sigma) | Units |
e | .1614826811320433 | 4.8699e-08 | |
a | 2.586867395720345 | 1.4176e-08 | au |
q | 2.169133112926357 | 1.3274e-07 | au |
i | 5.624425008459838 | 3.6347e-06 | deg |
node | 84.42082048058001 | 5.9618e-05 | deg |
peri | 335.2511424075032 | 6.2513e-05 | deg |
M | 10.84705168962117 | 1.9702e-05 | deg |
tp | 2458954.710185255073 (2020-Apr-15.21018525) | 8.2963e-05 | TDB |
period | 1519.706347849938 4.16 | 1.2492e-05 3.42e-08 | d yr |
n | .2368878701528908 | 1.9472e-09 | deg/d |
Q | 3.004601678514333 | 1.6465e-08 | au |
|
| | Orbit Determination Parameters
Additional Information
|